User: anonymous   Login
Location: Unspecified
(0.0000°N, 0.0000°E)
Time: 21:08:15
(UTC+02:00)
Language:

IUS-9 SRM-1 - Orbit

View from above orbital plane
View from above orbital plane
View from above satellite
View from above satellite

Ground track
Ground track

The orbit data is extracted from the following two-line orbital elements,

1 19884U 89021C   17113.09569930 +.00007796 +00000-0 +65048-3 0  9999
2 19884 026.5091 045.7697 5967524 235.5069 053.2783 04.13019081331700
Epoch (UTC): 23 April 2017 02:17:48
Eccentricity: 0.5967524
inclination: 26.5091°
perigee height: 239 km
apogee height: 19823 km
right ascension of ascending node: 45.7697°
argument of perigee: 235.5069°
revolutions per day: 4.13019081
mean anomaly at epoch: 53.2783°
orbit number at epoch: 33170

The dashed part of the orbit path shows where the satellite is in the earth's shadow,  

DLR